• In Romania
  • List of Countries
  • For 7 days
  • Water Temperature
  • Satellite Maps
  • Weather Map
  • Weather Widgets
  • user-avatar
    Login

    Hourly Weather Mons

    Today, 22 February, Thursday

    Time Temperature Precipitation Wind Pressure Humidity
    00:00 -3°C° 0 mm 4 mps 764 mmHg 80%
    01:00 -3°C° 0 mm 4 mps 764 mmHg 81%
    02:00 -3°C° 0 mm 4 mps 763 mmHg 82%
    03:00 -4°C° 0 mm 4 mps 763 mmHg 83%
    04:00 -4°C° 0 mm 4 mps 763 mmHg 82%
    05:00 -4°C° 0 mm 4 mps 763 mmHg 82%
    06:00 -4°C° 0 mm 4 mps 763 mmHg 81%
    07:00 -4°C° 0 mm 5 mps 763 mmHg 74%
    08:00 -2°C° 0 mm 5 mps 763 mmHg 66%
    09:00 -2°C° 0 mm 6 mps 763 mmHg 59%
    10:00 -1°C° 0 mm 6 mps 763 mmHg 53%
    11:00 +1°C° 0 mm 6 mps 763 mmHg 48%
    12:00 +3°C° 0 mm 6 mps 763 mmHg 42%
    13:00 +3°C° 0 mm 6 mps 763 mmHg 43%
    14:00 +3°C° 0 mm 6 mps 762 mmHg 44%
    15:00 +3°C° 0 mm 6 mps 762 mmHg 44%
    16:00 +1°C° 0 mm 6 mps 762 mmHg 50%
    17:00 0°C° 0 mm 5 mps 762 mmHg 55%
    18:00 -1°C° 0 mm 4 mps 762 mmHg 61%
    19:00 -2°C° 0 mm 4 mps 763 mmHg 62%
    20:00 -2°C° 0 mm 4 mps 763 mmHg 64%
    21:00 -2°C° 0 mm 5 mps 763 mmHg 65%
    22:00 -3°C° 0 mm 4 mps 763 mmHg 66%
    23:00 -3°C° 0 mm 4 mps 763 mmHg 67%

    Tomorrow, 23 February, Friday

    Time Temperature Precipitation Wind Pressure Humidity
    00:00 -3°C° 0 mm 4 mps 763 mmHg 68%
    01:00 -4°C° 0 mm 4 mps 763 mmHg 68%
    02:00 -4°C° 0 mm 4 mps 763 mmHg 68%
    03:00 -4°C° 0 mm 4 mps 762 mmHg 68%
    04:00 -5°C° 0 mm 5 mps 762 mmHg 67%
    05:00 -5°C° 0 mm 5 mps 762 mmHg 66%
    06:00 -5°C° 0 mm 5 mps 762 mmHg 64%
    07:00 -4°C° 0 mm 5 mps 762 mmHg 59%
    08:00 -4°C° 0 mm 6 mps 762 mmHg 53%
    09:00 -3°C° 0 mm 7 mps 762 mmHg 48%
    10:00 -2°C° 0 mm 7 mps 762 mmHg 44%
    11:00 -1°C° 0 mm 7 mps 762 mmHg 41%
    12:00 +2°C° 0 mm 7 mps 761 mmHg 37%
    13:00 +2°C° 0 mm 7 mps 761 mmHg 37%
    14:00 +2°C° 0 mm 6 mps 761 mmHg 37%
    15:00 +2°C° 0 mm 6 mps 760 mmHg 37%
    16:00 +1°C° 0 mm 6 mps 760 mmHg 40%
    17:00 0°C° 0 mm 5 mps 760 mmHg 43%
    18:00 -2°C° 0 mm 5 mps 761 mmHg 45%
    19:00 -2°C° 0 mm 5 mps 761 mmHg 45%
    20:00 -4°C° 0 mm 5 mps 761 mmHg 45%
    21:00 -4°C° 0 mm 5 mps 761 mmHg 44%
    22:00 -4°C° 0 mm 5 mps 761 mmHg 44%
    23:00 -4°C° 0 mm 5 mps 761 mmHg 45%

    Day after tomorrow, 24 February, Saturday

    Time Temperature Precipitation Wind Pressure Humidity
    00:00 -5°C° 0 mm 5 mps 761 mmHg 45%
    01:00 -5°C° 0 mm 5 mps 761 mmHg 46%
    02:00 -5°C° 0 mm 5 mps 760 mmHg 47%
    03:00 -5°C° 0 mm 5 mps 760 mmHg 48%
    04:00 -5°C° 0 mm 5 mps 760 mmHg 48%
    05:00 -5°C° 0 mm 5 mps 760 mmHg 48%
    06:00 -5°C° 0 mm 5 mps 760 mmHg 48%
    07:00 -4°C° 0 mm 6 mps 761 mmHg 45%
    08:00 -3°C° 0 mm 6 mps 761 mmHg 42%
    09:00 -2°C° 0 mm 7 mps 761 mmHg 39%
    10:00 -1°C° 0 mm 7 mps 761 mmHg 37%
    11:00 0°C° 0 mm 7 mps 761 mmHg 35%
    12:00 +3°C° 0 mm 7 mps 761 mmHg 33%
    13:00 +3°C° 0 mm 7 mps 761 mmHg 33%
    14:00 +3°C° 0 mm 7 mps 760 mmHg 32%
    15:00 +4°C° 0 mm 7 mps 760 mmHg 32%
    16:00 +2°C° 0 mm 7 mps 761 mmHg 36%
    17:00 +1°C° 0 mm 6 mps 761 mmHg 40%
    18:00 -1°C° 0 mm 5 mps 761 mmHg 44%
    19:00 -1°C° 0 mm 5 mps 762 mmHg 47%
    20:00 -3°C° 0 mm 6 mps 762 mmHg 50%
    21:00 -3°C° 0 mm 6 mps 763 mmHg 52%
    22:00 -4°C° 0 mm 6 mps 763 mmHg 51%
    23:00 -4°C° 0 mm 5 mps 763 mmHg 51%

    25 February, Sunday

    Time Temperature Precipitation Wind Pressure Humidity
    00:00 -5°C° 0 mm 5 mps 763 mmHg 50%
    01:00 -5°C° 0 mm 5 mps 763 mmHg 49%
    02:00 -5°C° 0 mm 5 mps 763 mmHg 48%
    03:00 -5°C° 0 mm 5 mps 763 mmHg 48%
    04:00 -6°C° 0 mm 6 mps 763 mmHg 47%
    05:00 -6°C° 0 mm 6 mps 764 mmHg 47%
    06:00 -6°C° 0 mm 6 mps 764 mmHg 47%
    07:00 -5°C° 0 mm 6 mps 764 mmHg 44%
    08:00 -6°C° 0 mm 7 mps 764 mmHg 40%
    09:00 -4°C° 0 mm 7 mps 764 mmHg 37%
    10:00 -3°C° 0 mm 7 mps 764 mmHg 34%
    11:00 -2°C° 0 mm 7 mps 764 mmHg 31%
    12:00 -1°C° 0 mm 7 mps 764 mmHg 28%
    13:00 -1°C° 0 mm 7 mps 764 mmHg 27%
    14:00 -1°C° 0 mm 7 mps 764 mmHg 26%
    15:00 -1°C° 0 mm 7 mps 764 mmHg 24%
    16:00 -2°C° 0 mm 7 mps 764 mmHg 26%
    17:00 -3°C° 0 mm 6 mps 765 mmHg 28%
    18:00 -5°C° 0 mm 6 mps 765 mmHg 30%
    19:00 -5°C° 0 mm 6 mps 765 mmHg 33%
    20:00 -6°C° 0 mm 6 mps 766 mmHg 35%
    21:00 -6°C° 0 mm 6 mps 766 mmHg 37%
    22:00 -6°C° 0 mm 5 mps 766 mmHg 40%
    23:00 -6°C° 0 mm 5 mps 766 mmHg 42%

    26 February, Monday

    Time Temperature Precipitation Wind Pressure Humidity
    00:00 -7°C° 0 mm 5 mps 766 mmHg 44%
    01:00 -7°C° 0 mm 5 mps 766 mmHg 45%
    02:00 -7°C° 0 mm 5 mps 766 mmHg 46%
    03:00 -7°C° 0 mm 5 mps 766 mmHg 47%
    04:00 -7°C° 0 mm 5 mps 766 mmHg 46%
    05:00 -8°C° 0 mm 6 mps 766 mmHg 46%
    06:00 -8°C° 0 mm 6 mps 766 mmHg 46%
    07:00 -8°C° 0 mm 6 mps 766 mmHg 43%
    08:00 -8°C° 0 mm 7 mps 766 mmHg 41%
    09:00 -7°C° 0 mm 7 mps 766 mmHg 38%
    10:00 -6°C° 0 mm 7 mps 766 mmHg 36%
    11:00 -6°C° 0 mm 7 mps 765 mmHg 34%
    12:00 -4°C° 0 mm 7 mps 765 mmHg 32%
    13:00 -4°C° 0 mm 7 mps 764 mmHg 32%
    14:00 -4°C° 0 mm 7 mps 764 mmHg 31%
    15:00 -4°C° 0 mm 7 mps 764 mmHg 31%
    16:00 -5°C° 0 mm 6 mps 764 mmHg 34%
    17:00 -6°C° 0 mm 5 mps 763 mmHg 38%
    18:00 -7°C° 0 mm 5 mps 763 mmHg 41%
    19:00 -7°C° 0 mm 5 mps 763 mmHg 41%
    20:00 -7°C° 0 mm 4 mps 763 mmHg 41%
    21:00 -7°C° 0 mm 4 mps 763 mmHg 41%
    22:00 -8°C° 0 mm 4 mps 763 mmHg 41%
    23:00 -8°C° 0 mm 4 mps 763 mmHg 41%

    27 February, Tuesday

    Time Temperature Precipitation Wind Pressure Humidity
    00:00 -8°C° 0 mm 4 mps 763 mmHg 41%
    01:00 -8°C° 0 mm 4 mps 763 mmHg 41%
    02:00 -7°C° 0 mm 3 mps 762 mmHg 42%
    03:00 -8°C° 0 mm 3 mps 762 mmHg 42%
    04:00 -8°C° 0 mm 3 mps 762 mmHg 43%
    05:00 -8°C° 0 mm 3 mps 762 mmHg 44%
    06:00 -8°C° 0 mm 3 mps 762 mmHg 45%
    07:00 -9°C° 0 mm 4 mps 762 mmHg 42%
    08:00 -8°C° 0 mm 4 mps 762 mmHg 38%
    09:00 -7°C° 0 mm 5 mps 762 mmHg 34%
    10:00 -6°C° 0 mm 5 mps 762 mmHg 31%
    11:00 -6°C° 0 mm 5 mps 761 mmHg 27%
    12:00 -4°C° 0 mm 4 mps 761 mmHg 24%
    13:00 -3°C° 0 mm 4 mps 761 mmHg 23%
    14:00 -3°C° 0 mm 4 mps 761 mmHg 23%
    15:00 -3°C° 0 mm 4 mps 760 mmHg 22%
    16:00 -4°C° 0 mm 4 mps 761 mmHg 26%
    17:00 -5°C° 0 mm 3 mps 761 mmHg 30%
    18:00 -6°C° 0 mm 3 mps 761 mmHg 33%
    19:00 -5°C° 0 mm 2 mps 761 mmHg 35%
    20:00 -5°C° 0 mm 2 mps 762 mmHg 37%
    21:00 -6°C° 0 mm 2 mps 762 mmHg 39%
    22:00 -6°C° 0 mm 2 mps 762 mmHg 41%
    23:00 -6°C° 0 mm 2 mps 762 mmHg 43%
    Show more